Content
SEND FEEDBACK

Daily
Averages
Monthly
Summary
United States of America

MANGILAO, GUAM


Home > North America > United States > Guam
Elevation: 60 feet     Latitude: 13 27N     Longitude: 144 49E

WEATHER
 
SELECT A DAY
Number of Records: 341,794;   Date Range: 1/1/95 - 7/23/14
 
SHARE

PRINT THIS DATA

[ ← Previous Day ]
WEATHER ALMANAC - JANUARY 8, 2013
[ Next Day → ]
[ °C ]   °F
Weather ElementAverageHighLow
Temperature74.9 °F80.6 °F (12:18 pm)68 °F (2:31 pm)
Dewpoint72.2 °F75.2 °F (10:04 am)66.2 °F (1:51 pm)
Humidity91.6 %100 % (3:34 am)78 % (8:22 am)
Barometer29.80 in29.87 in (11:44 am)29.74 in (3:10 pm)
Wind Speed19.3 mph31.1 mph (3:28 pm)
Wind Gust39.1 mph (3:27 pm)
Weather ElementAverage
Visibility7.1 mi
Wind DirectionNE (48.1 °)

Weather ElementTotal
Precipitation0.86 in
Cooling Degree Days9.3 (Base 65)
Growing Degree Days24.3 (Base 50)
Averaged from 255 records on January 8, 2013
WEATHER CONDITIONS BREAKOUT
WIND DIRECTION BREAKOUT
WEATHER BY HOUR - JANUARY 8, 2013
[ °C ]   °F
Local TimeTemperatureDewpointHumidityBarometerVisibilityWind DirectionWind SpeedGust SpeedPrecipitationEventsConditions
12:26 AM77.0 °F73.4 °F89 %29.82 in7.0 miNE (50°)19.6 mph25.3 mphRainLight Rain
12:36 AM75.2 °F73.4 °F94 %29.83 in5.0 miNE (40°)17.3 mphRainLight Rain
12:42 AM75.2 °F73.4 °F94 %29.82 in9.0 miNE (40°)16.1 mphRainLight Rain
12:43 AM75.2 °F73.4 °F94 %29.82 in10.0 miNNE (30°)16.1 mphOvercast
12:44 AM75.2 °F73.4 °F94 %29.82 in10.0 miNNE (30°)16.1 mphOvercast
12:48 AM75.2 °F73.4 °F94 %29.82 in10.0 miNE (40°)15.0 mphMostly Cloudy
12:49 AM75.2 °F73.4 °F94 %29.82 in10.0 miNE (40°)15.0 mphMostly Cloudy
12:55 AM75.9 °F74.1 °F94 %29.82 in10.0 miNE (40°)13.8 mph0.02 inMostly Cloudy
12:59 AM75.2 °F73.4 °F94 %29.82 in10.0 miNE (40°)16.1 mphMostly Cloudy
1:01 AM73.4 °F71.6 °F94 %29.82 in10.0 miNE (40°)16.1 mphMostly Cloudy
1:05 AM71.6 °F69.8 °F94 %29.82 in10.0 miNE (40°)17.3 mphMostly Cloudy
1:08 AM73.4 °F71.6 °F94 %29.82 in10.0 miNE (40°)16.1 mphMostly Cloudy
1:55 AM76.1 °F72.7 °F89 %29.81 in10.0 miNE (40°)19.6 mphMostly Cloudy
1:57 AM77.0 °F73.4 °F89 %29.81 in10.0 miNE (40°)20.7 mphMostly Cloudy
2:23 AM77.0 °F73.4 °F89 %29.81 in10.0 miNNE (30°)16.1 mphOvercast
2:25 AM75.2 °F73.4 °F94 %29.81 in10.0 miNNE (30°)17.3 mphLight Drizzle
2:32 AM75.2 °F73.4 °F94 %29.81 in9.0 miNNE (30°)19.6 mph26.5 mphLight Drizzle
2:33 AM75.2 °F73.4 °F94 %29.81 in8.0 miNNE (30°)21.9 mph26.5 mphLight Drizzle
2:38 AM75.2 °F73.4 °F94 %29.80 in8.0 miNE (40°)26.5 mph32.2 mphRainLight Rain
2:43 AM75.2 °F73.4 °F94 %29.81 in10.0 miNNE (30°)27.6 mph32.2 mphRainLight Rain
2:52 AM75.2 °F73.4 °F94 %29.80 in9.0 miNNE (30°)19.6 mphRainLight Rain
2:55 AM74.8 °F72.9 °F94 %29.80 in9.0 miNNE (30°)17.3 mph0.01 inRainLight Rain
2:57 AM75.2 °F73.4 °F94 %29.80 in10.0 miNNE (20°)17.3 mphRainLight Rain
3:06 AM75.2 °F73.4 °F94 %29.80 in7.0 miNNE (20°)20.7 mph25.3 mphLight Drizzle
3:07 AM75.2 °F73.4 °F94 %29.80 in6.0 miNNE (20°)18.4 mph25.3 mphOvercast
3:08 AM75.2 °F73.4 °F94 %29.80 in6.0 miNNE (20°)17.3 mph25.3 mphRainLight Rain
3:10 AM75.2 °F73.4 °F94 %29.80 in5.0 miNNE (30°)16.1 mph25.3 mphOvercast
3:25 AM73.4 °F71.6 °F94 %29.80 in4.0 miNE (50°)15.0 mph24.2 mphOvercast
3:26 AM73.4 °F71.6 °F94 %29.80 in4.0 miNE (40°)13.8 mphLight Drizzle
3:32 AM73.4 °F71.6 °F94 %29.80 in6.0 miNNE (30°)16.1 mphOvercast
3:34 AM73.4 °F73.4 °F100 %29.80 in7.0 miNNE (30°)12.7 mphRainLight Rain
3:45 AM73.4 °F71.6 °F94 %29.80 in9.0 miNE (40°)11.5 mphLight Drizzle
3:52 AM73.4 °F73.4 °F100 %29.79 in10.0 miNE (40°)9.2 mphLight Drizzle
3:55 AM74.3 °F73.0 °F96 %29.79 in10.0 miNE (40°)8.1 mph0.03 inLight Drizzle
3:58 AM75.2 °F73.4 °F94 %29.79 in10.0 miNNE (30°)9.2 mphOvercast
4:01 AM75.2 °F73.4 °F94 %29.79 in10.0 miNE (40°)11.5 mphOvercast
4:06 AM75.2 °F73.4 °F94 %29.80 in8.0 miEast (100°)10.4 mphRainLight Rain
4:08 AM73.4 °F73.4 °F100 %29.80 in8.0 miEast (90°)12.7 mph20.7 mphRainLight Rain
4:09 AM73.4 °F73.4 °F100 %29.81 in5.0 miEast (80°)17.3 mph21.9 mphRainLight Rain
4:11 AM73.4 °F71.6 °F94 %29.80 in2.5 miEast (80°)12.7 mph21.9 mphRainLight Rain
4:12 AM73.4 °F71.6 °F94 %29.80 in2.0 miEast (80°)11.5 mph21.9 mphRainHeavy Rain
4:13 AM73.4 °F71.6 °F94 %29.80 in2.0 miEast (80°)12.7 mph21.9 mphRainHeavy Rain
4:14 AM73.4 °F71.6 °F94 %29.80 in2.0 miEast (80°)11.5 mph21.9 mphRainHeavy Rain
4:15 AM73.4 °F71.6 °F94 %29.80 in1.8 miEast (80°)11.5 mph21.9 mphRainLight Rain
4:18 AM73.4 °F71.6 °F94 %29.80 in1.5 miEast (80°)12.7 mph21.9 mphRainLight Rain
4:20 AM73.4 °F71.6 °F94 %29.80 in1.5 miEast (90°)13.8 mphRainHeavy Rain
4:24 AM73.4 °F71.6 °F94 %29.80 in1.5 miEast (80°)10.4 mphRainRain
4:29 AM73.4 °F71.6 °F94 %29.80 in1.5 miEast (90°)11.5 mphRainRain
4:34 AM73.4 °F71.6 °F94 %29.80 in1.5 miEast (80°)12.7 mphRainHeavy Rain
4:35 AM73.4 °F71.6 °F94 %29.80 in1.8 miEast (80°)10.4 mphRainRain
4:39 AM73.4 °F71.6 °F94 %29.80 in2.0 miEast (80°)9.2 mphRainRain
4:41 AM73.4 °F71.6 °F94 %29.80 in2.5 miEast (80°)8.1 mphRainRain
4:42 AM73.4 °F71.6 °F94 %29.80 in3.0 miENE (70°)8.1 mphRainLight Rain
4:49 AM73.4 °F71.6 °F94 %29.80 in5.0 miENE (60°)6.9 mphRainLight Rain
4:53 AM73.4 °F73.4 °F100 %29.79 in8.0 miENE (60°)9.2 mphRainLight Rain
4:55 AM73.8 °F72.5 °F96 %29.79 in8.0 miENE (60°)6.9 mph0.26 inRainLight Rain
4:56 AM73.4 °F73.4 °F100 %29.79 in8.0 miENE (60°)8.1 mphRainLight Rain
4:59 AM73.4 °F73.4 °F100 %29.79 in8.0 miNE (40°)11.5 mphOvercast
5:00 AM73.4 °F73.4 °F100 %29.80 in5.0 miNE (40°)13.8 mphOvercast
5:01 AM73.4 °F73.4 °F100 %29.80 in3.0 miNNE (30°)17.3 mph26.5 mphRainRain
5:02 AM73.4 °F73.4 °F100 %29.80 in2.5 miNNE (30°)19.6 mph26.5 mphRainRain
5:04 AM73.4 °F73.4 °F100 %29.80 in2.5 miNNE (30°)18.4 mph26.5 mphRainHeavy Rain
5:06 AM73.4 °F73.4 °F100 %29.80 in2.5 miNE (40°)19.6 mph26.5 mphRainLight Rain
5:09 AM71.6 °F71.6 °F100 %29.80 in2.5 miNNE (30°)21.9 mph26.5 mphRainLight Rain
5:10 AM71.6 °F69.8 °F94 %29.80 in3.0 miNE (40°)21.9 mph26.5 mphRainLight Rain
5:14 AM69.8 °F68.0 °F94 %29.80 in9.0 miNNE (30°)20.7 mphRainLight Rain
5:16 AM69.8 °F69.8 °F100 %29.80 in10.0 miNNE (30°)20.7 mphOvercast
5:17 AM71.6 °F69.8 °F94 %29.80 in10.0 miNNE (30°)19.6 mphOvercast
5:22 AM69.8 °F68.0 °F94 %29.80 in10.0 miNNE (30°)20.7 mphMostly Cloudy
5:25 AM71.6 °F69.8 °F94 %29.80 in10.0 miNNE (30°)19.6 mphOvercast
5:34 AM71.6 °F69.8 °F94 %29.80 in10.0 miNE (40°)23.0 mphOvercast
5:55 AM68.7 °F66.9 °F94 %29.81 in10.0 miNNE (30°)19.6 mph0.17 inOvercast
6:25 AM71.6 °F69.8 °F94 %29.81 in10.0 miNNE (30°)17.3 mph27.6 mphMostly Cloudy
6:55 AM70.3 °F67.6 °F91 %29.82 in10.0 miNNE (30°)19.6 mphMostly Cloudy
6:56 AM71.6 °F69.8 °F94 %29.82 in10.0 miNNE (30°)19.6 mphMostly Cloudy
6:58 AM75.2 °F71.6 °F89 %29.82 in10.0 miNE (40°)20.7 mphMostly Cloudy
6:59 AM75.2 °F73.4 °F94 %29.82 in10.0 miNE (40°)21.9 mphOvercast
7:02 AM77.0 °F73.4 °F89 %29.82 in10.0 miNE (40°)21.9 mphMostly Cloudy
7:03 AM77.0 °F73.4 °F89 %29.82 in10.0 miNE (40°)20.7 mphMostly Cloudy
7:09 AM77.0 °F73.4 °F89 %29.82 in10.0 miNNE (30°)19.6 mphMostly Cloudy
7:22 AM77.0 °F73.4 °F89 %29.82 in10.0 miNNE (30°)16.1 mphMostly Cloudy
7:29 AM77.0 °F73.4 °F89 %29.82 in10.0 miNNE (30°)16.1 mphMostly Cloudy
7:32 AM77.0 °F73.4 °F89 %29.82 in10.0 miNE (40°)19.6 mphMostly Cloudy
7:33 AM77.0 °F73.4 °F89 %29.82 in10.0 miNNE (30°)19.6 mphMostly Cloudy
7:34 AM77.0 °F73.4 °F89 %29.82 in10.0 miNE (40°)17.3 mphMostly Cloudy
7:36 AM77.0 °F73.4 °F89 %29.82 in10.0 miNE (40°)17.3 mphMostly Cloudy
7:55 AM77.9 °F73.0 °F85 %29.83 in10.0 miNE (40°)19.6 mphMostly Cloudy
7:59 AM77.0 °F73.4 °F89 %29.83 in10.0 miNNE (30°)21.9 mphLight Drizzle
8:08 AM78.8 °F73.4 °F83 %29.83 in10.0 miNE (40°)23.0 mphMostly Cloudy
8:22 AM78.8 °F71.6 °F78 %29.84 in10.0 miNE (40°)24.2 mphMostly Cloudy
8:23 AM78.8 °F71.6 °F78 %29.84 in10.0 miNE (40°)24.2 mphMostly Cloudy
8:30 AM78.8 °F71.6 °F78 %29.84 in10.0 miNE (40°)21.9 mph31.1 mphScattered Clouds
8:55 AM78.6 °F72.0 °F80 %29.84 in10.0 miNNE (30°)21.9 mph28.8 mph0.00 inScattered Clouds
9:03 AM78.8 °F71.6 °F78 %29.84 in10.0 miNNE (30°)21.9 mph29.9 mphMostly Cloudy
9:19 AM77.0 °F71.6 °F83 %29.85 in9.0 miNE (40°)24.2 mph28.8 mphOvercast
9:24 AM77.0 °F73.4 °F89 %29.85 in10.0 miNE (40°)24.2 mphOvercast
9:28 AM77.0 °F73.4 °F89 %29.85 in10.0 miNE (50°)27.6 mph34.5 mphOvercast
9:31 AM77.0 °F73.4 °F89 %29.86 in4.0 miNE (50°)26.5 mph34.5 mphRainLight Rain
9:34 AM77.0 °F73.4 °F89 %29.86 in2.5 miNE (50°)24.2 mph34.5 mphRainLight Rain
9:36 AM77.0 °F73.4 °F89 %29.86 in2.0 miNE (50°)25.3 mph34.5 mphLight Drizzle
9:39 AM75.2 °F73.4 °F94 %29.86 in1.8 miNE (50°)23.0 mphRainLight Rain
9:40 AM75.2 °F73.4 °F94 %29.86 in2.0 miNE (50°)23.0 mphLight Drizzle
9:42 AM75.2 °F73.4 °F94 %29.85 in2.5 miNE (50°)19.6 mphLight Drizzle
9:43 AM75.2 °F73.4 °F94 %29.85 in3.0 miNE (40°)16.1 mphLight Drizzle
9:45 AM75.2 °F73.4 °F94 %29.85 in3.0 miNE (40°)20.7 mph24.2 mphOvercast
9:55 AM71.4 °F69.3 °F93 %29.85 in10.0 miNE (40°)19.6 mph0.01 inOvercast
9:58 AM75.2 °F73.4 °F94 %29.85 in10.0 miNE (40°)18.4 mphOvercast
9:59 AM77.0 °F73.4 °F89 %29.85 in10.0 miNE (40°)17.3 mphOvercast
10:04 AM77.0 °F75.2 °F94 %29.84 in10.0 miNE (40°)17.3 mphMostly Cloudy
10:08 AM77.0 °F75.2 °F94 %29.84 in10.0 miNE (40°)16.1 mphMostly Cloudy
10:12 AM77.0 °F73.4 °F89 %29.84 in5.0 miNE (50°)21.9 mph25.3 mphMostly Cloudy
10:13 AM77.0 °F73.4 °F89 %29.84 in4.0 miENE (60°)21.9 mph28.8 mphRainHeavy Rain
10:14 AM77.0 °F73.4 °F89 %29.84 in2.5 miENE (60°)24.2 mph28.8 mphRainRain
10:15 AM75.2 °F71.6 °F89 %29.84 in2.0 miENE (60°)24.2 mph28.8 mphRainRain
10:16 AM73.4 °F71.6 °F94 %29.84 in1.5 miENE (60°)23.0 mph28.8 mphRainHeavy Rain
10:17 AM73.4 °F71.6 °F94 %29.84 in1.2 miENE (60°)21.9 mph28.8 mphRainHeavy Rain
10:18 AM73.4 °F71.6 °F94 %29.84 in1.0 miENE (60°)21.9 mph28.8 mphRainHeavy Rain
10:19 AM73.4 °F69.8 °F88 %29.84 in1.0 miENE (60°)23.0 mph28.8 mphRainHeavy Rain
10:20 AM73.4 °F71.6 °F94 %29.84 in0.8 miENE (70°)23.0 mph28.8 mphRainHeavy Rain
10:22 AM75.2 °F71.6 °F89 %29.84 in0.8 miENE (60°)19.6 mph28.8 mphRainLight Rain
10:24 AM75.2 °F73.4 °F94 %29.84 in1.0 miENE (60°)25.3 mph28.8 mphRainLight Rain
10:26 AM77.0 °F75.2 °F94 %29.84 in1.2 miENE (60°)26.5 mph33.4 mphRainLight Rain
10:27 AM77.0 °F75.2 °F94 %29.84 in1.2 miENE (60°)26.5 mph33.4 mphRainLight Rain
10:28 AM77.0 °F75.2 °F94 %29.84 in1.5 miNE (50°)25.3 mph33.4 mphRainLight Rain
10:30 AM77.0 °F75.2 °F94 %29.84 in2.5 miENE (60°)21.9 mph33.4 mphRainLight Rain
10:32 AM77.0 °F75.2 °F94 %29.84 in3.0 miNE (50°)21.9 mph33.4 mphMostly Cloudy
10:37 AM77.0 °F75.2 °F94 %29.84 in5.0 miNE (50°)18.4 mph27.6 mphMostly Cloudy
10:39 AM77.0 °F75.2 °F94 %29.84 in9.0 miNE (50°)16.1 mph27.6 mphMostly Cloudy
10:40 AM77.0 °F75.2 °F94 %29.84 in10.0 miNE (50°)18.4 mph27.6 mphMostly Cloudy
10:47 AM77.0 °F75.2 °F94 %29.84 in10.0 miNE (40°)21.9 mph28.8 mphMostly Cloudy
10:55 AM76.1 °F74.1 °F94 %29.84 in10.0 miNE (40°)20.7 mph27.6 mph0.13 inMostly Cloudy
10:58 AM77.0 °F73.4 °F89 %29.84 in10.0 miNE (40°)21.9 mph26.5 mphMostly Cloudy
11:00 AM77.0 °F75.2 °F94 %29.84 in10.0 miNE (40°)19.6 mph26.5 mphMostly Cloudy
11:03 AM75.2 °F73.4 °F94 %29.83 in10.0 miNE (40°)20.7 mph26.5 mphMostly Cloudy
11:04 AM75.2 °F73.4 °F94 %29.83 in10.0 miNE (40°)19.6 mphMostly Cloudy
11:06 AM75.2 °F73.4 °F94 %29.83 in10.0 miNE (40°)20.7 mphMostly Cloudy
11:09 AM75.2 °F73.4 °F94 %29.83 in10.0 miNE (40°)23.0 mphMostly Cloudy
11:16 AM75.2 °F73.4 °F94 %29.83 in10.0 miNE (50°)21.9 mphOvercast
11:22 AM73.4 °F71.6 °F94 %29.83 in10.0 miNE (50°)20.7 mphOvercast
11:39 AM77.0 °F73.4 °F89 %29.82 in10.0 miNE (40°)20.7 mphOvercast
11:42 AM78.8 °F75.2 °F89 %29.82 in10.0 miNE (40°)21.9 mphMostly Cloudy
11:44 AM77.0 °F73.4 °F89 %29.87 in10.0 miNE (40°)20.7 mphMostly Cloudy
11:55 AM75.6 °F71.2 °F86 %29.81 in10.0 miNNE (30°)19.6 mphOvercast
11:57 AM75.2 °F71.6 °F89 %29.82 in10.0 miNNE (30°)21.9 mphOvercast
12:07 PM78.8 °F73.4 °F83 %29.81 in10.0 miNE (50°)20.7 mphMostly Cloudy
12:18 PM80.6 °F73.4 °F79 %29.81 in10.0 miNE (40°)19.6 mphMostly Cloudy
12:19 PM80.6 °F73.4 °F79 %29.81 in10.0 miNE (40°)19.6 mphMostly Cloudy
12:22 PM80.6 °F73.4 °F79 %29.81 in10.0 miNE (40°)23.0 mph28.8 mphMostly Cloudy
12:30 PM80.6 °F73.4 °F79 %29.80 in10.0 miNE (50°)24.2 mph28.8 mphMostly Cloudy
12:46 PM80.6 °F73.4 °F79 %29.79 in10.0 miNE (40°)20.7 mphMostly Cloudy
12:49 PM80.6 °F75.2 °F84 %29.79 in10.0 miNE (40°)20.7 mphMostly Cloudy
12:55 PM79.9 °F73.9 °F82 %29.78 in10.0 miNE (40°)20.7 mphMostly Cloudy
12:59 PM80.6 °F73.4 °F79 %29.78 in10.0 miNE (40°)20.7 mphMostly Cloudy
1:11 PM78.8 °F71.6 °F78 %29.78 in9.0 miNE (40°)27.6 mph33.4 mphRainLight Rain
1:23 PM75.2 °F69.8 °F83 %29.77 in9.0 miNE (40°)19.6 mphScattered Clouds
1:28 PM77.0 °F71.6 °F83 %29.77 in10.0 miNNE (30°)18.4 mphMostly Cloudy
1:35 PM78.8 °F73.4 °F83 %29.77 in10.0 miNNE (30°)17.3 mphMostly Cloudy
1:51 PM73.4 °F66.2 °F78 %29.76 in10.0 miNE (40°)18.4 mphMostly Cloudy
1:55 PM73.9 °F67.8 °F81 %29.76 in10.0 miNE (40°)19.6 mph0.00 inMostly Cloudy
1:57 PM77.0 °F71.6 °F83 %29.76 in10.0 miNE (40°)19.6 mphMostly Cloudy
2:12 PM80.6 °F73.4 °F79 %29.75 in9.0 miNE (50°)26.5 mph32.2 mphLight Drizzle
2:16 PM78.8 °F73.4 °F83 %29.75 in3.0 miENE (60°)25.3 mph32.2 mphRainLight Rain
2:18 PM78.8 °F73.4 °F83 %29.75 in2.5 miENE (60°)25.3 mph32.2 mphRainLight Rain
2:19 PM77.0 °F73.4 °F89 %29.75 in2.0 miENE (60°)24.2 mph32.2 mphRainLight Rain
2:21 PM77.0 °F73.4 °F89 %29.75 in1.8 miENE (60°)23.0 mph32.2 mphRainLight Rain
2:31 PM68.0 °F66.2 °F94 %29.76 in2.0 miENE (60°)20.7 mph27.6 mphRainLight Rain
2:32 PM69.8 °F66.2 °F88 %29.75 in2.5 miENE (60°)23.0 mph27.6 mphRainLight Rain
2:33 PM69.8 °F66.2 °F88 %29.75 in3.0 miENE (60°)21.9 mph27.6 mphLight Drizzle
2:36 PM69.8 °F68.0 °F94 %29.75 in6.0 miNE (50°)18.4 mph27.6 mphLight Drizzle
2:37 PM69.8 °F68.0 °F94 %29.75 in8.0 miNE (50°)19.6 mph27.6 mphOvercast
2:53 PM77.0 °F75.2 °F94 %29.75 in10.0 miNE (50°)20.7 mphOvercast
2:55 PM77.0 °F74.7 °F92 %29.75 in10.0 miNE (40°)19.6 mph0.03 inRainLight Rain
2:56 PM77.0 °F75.2 °F94 %29.75 in10.0 miNE (40°)19.6 mphRainLight Rain
3:10 PM78.8 °F75.2 °F89 %29.74 in10.0 miNE (40°)19.6 mph26.5 mphOvercast
3:12 PM78.8 °F75.2 °F89 %29.75 in10.0 miNE (40°)19.6 mph26.5 mphOvercast
3:25 PM78.8 °F75.2 °F89 %29.75 in10.0 miNE (40°)20.7 mphOvercast
3:27 PM78.8 °F75.2 °F89 %29.75 in2.5 miENE (70°)29.9 mph39.1 mphOvercast
3:28 PM78.8 °F73.4 °F83 %29.75 in1.5 miENE (60°)31.1 mph39.1 mphRainHeavy Rain
3:29 PM78.8 °F73.4 °F83 %29.75 in1.2 miNE (50°)27.6 mph39.1 mphRainHeavy Rain
3:30 PM77.0 °F73.4 °F89 %29.75 in1.0 miNE (50°)24.2 mph39.1 mphRainHeavy Rain
3:32 PM77.0 °F73.4 °F89 %29.75 in0.8 miENE (60°)18.4 mph39.1 mphRainHeavy Rain
3:37 PM75.2 °F73.4 °F94 %29.75 in1.0 miNE (50°)16.1 mphRainLight Rain
3:38 PM75.2 °F73.4 °F94 %29.75 in1.5 miNE (50°)16.1 mphRainLight Rain
3:39 PM75.2 °F73.4 °F94 %29.75 in2.0 miNE (50°)17.3 mphRainLight Rain
3:40 PM77.0 °F73.4 °F89 %29.75 in2.5 miNE (50°)16.1 mphRainLight Rain
3:41 PM77.0 °F73.4 °F89 %29.75 in4.0 miNE (50°)16.1 mphRainLight Rain
3:44 PM77.0 °F75.2 °F94 %29.75 in9.0 miNE (50°)20.7 mph28.8 mphOvercast
3:46 PM77.0 °F75.2 °F94 %29.75 in9.0 miENE (70°)27.6 mph35.7 mphRainLight Rain
3:47 PM77.0 °F73.4 °F89 %29.75 in8.0 miENE (70°)23.0 mph35.7 mphLight Drizzle
3:55 PM75.6 °F73.4 °F93 %29.76 in2.5 miENE (70°)21.9 mph35.7 mph0.13 inRainLight Rain
3:57 PM75.2 °F73.4 °F94 %29.76 in2.0 miENE (70°)21.9 mph34.5 mphRainLight Rain
3:59 PM75.2 °F71.6 °F89 %29.76 in1.8 miENE (70°)21.9 mph28.8 mphRainLight Rain
4:08 PM68.0 °F66.2 °F94 %29.76 in1.8 miENE (60°)15.0 mphRainLight Rain
4:09 PM69.8 °F68.0 °F94 %29.76 in1.8 miENE (60°)12.7 mphRainLight Rain
4:10 PM71.6 °F69.8 °F94 %29.76 in2.0 miENE (60°)15.0 mphRainLight Rain
4:11 PM71.6 °F69.8 °F94 %29.76 in2.5 miENE (60°)16.1 mphRainLight Rain
4:12 PM73.4 °F71.6 °F94 %29.76 in3.0 miENE (60°)13.8 mphRainLight Rain
4:18 PM75.2 °F73.4 °F94 %29.76 in9.0 miNE (50°)13.8 mphOvercast
4:21 PM75.2 °F73.4 °F94 %29.76 in10.0 miNE (50°)13.8 mphOvercast
4:55 PM71.2 °F68.2 °F90 %29.77 in10.0 miNE (50°)17.3 mph24.2 mph0.03 inScattered Clouds
5:00 PM71.6 °F68.0 °F88 %29.77 in10.0 miNE (40°)19.6 mphMostly Cloudy
5:07 PM75.2 °F71.6 °F89 %29.77 in10.0 miENE (60°)23.0 mph29.9 mphMostly Cloudy
5:08 PM77.0 °F73.4 °F89 %29.77 in10.0 miENE (60°)24.2 mph29.9 mphMostly Cloudy
5:12 PM77.0 °F73.4 °F89 %29.78 in4.0 miENE (60°)25.3 mph32.2 mphMostly Cloudy
5:13 PM75.2 °F73.4 °F94 %29.78 in3.0 miENE (60°)25.3 mph32.2 mphRainRain
5:14 PM75.2 °F73.4 °F94 %29.78 in2.5 miENE (60°)24.2 mph32.2 mphRainRain
5:15 PM75.2 °F71.6 °F89 %29.78 in2.0 miENE (60°)24.2 mph32.2 mphRainLight Rain
5:17 PM75.2 °F71.6 °F89 %29.78 in2.0 miNE (50°)23.0 mph32.2 mphRainLight Rain
5:18 PM75.2 °F71.6 °F89 %29.78 in1.8 miENE (60°)23.0 mph32.2 mphRainLight Rain
5:19 PM73.4 °F71.6 °F94 %29.78 in1.8 miNE (50°)21.9 mph32.2 mphRainLight Rain
5:22 PM75.2 °F71.6 °F89 %29.78 in2.0 miNE (50°)17.3 mph32.2 mphRainLight Rain
5:23 PM75.2 °F73.4 °F94 %29.78 in2.5 miNE (50°)17.3 mphRainLight Rain
5:24 PM75.2 °F73.4 °F94 %29.78 in3.0 miNE (50°)18.4 mphLight Drizzle
5:27 PM73.4 °F71.6 °F94 %29.78 in4.0 miNE (50°)20.7 mphLight Drizzle
5:28 PM71.6 °F69.8 °F94 %29.78 in5.0 miNE (50°)19.6 mphLight Drizzle
5:36 PM75.2 °F73.4 °F94 %29.78 in9.0 miNE (50°)17.3 mphOvercast
5:46 PM73.4 °F71.6 °F94 %29.78 in10.0 miNE (50°)16.1 mphOvercast
5:48 PM71.6 °F69.8 °F94 %29.78 in10.0 miNE (50°)16.1 mphOvercast
5:55 PM75.9 °F73.8 °F93 %29.78 in10.0 miNE (50°)19.6 mph0.03 inOvercast
5:58 PM77.0 °F75.2 °F94 %29.78 in10.0 miNE (50°)18.4 mphOvercast
6:40 PM77.0 °F75.2 °F94 %29.79 in10.0 miNE (50°)21.9 mphOvercast
6:49 PM77.0 °F75.2 °F94 %29.79 in10.0 miNE (50°)20.7 mphOvercast
6:55 PM77.5 °F74.3 °F90 %29.80 in10.0 miNE (50°)23.0 mph29.9 mphOvercast
6:58 PM77.0 °F73.4 °F89 %29.79 in10.0 miNE (50°)23.0 mph29.9 mphOvercast
7:11 PM77.0 °F73.4 °F89 %29.79 in8.0 miENE (60°)23.0 mph32.2 mphMostly Cloudy
7:40 PM69.8 °F68.0 °F94 %29.81 in10.0 miNE (50°)17.3 mphMostly Cloudy
7:42 PM69.8 °F68.0 °F94 %29.81 in10.0 miNE (50°)18.4 mphMostly Cloudy
7:43 PM69.8 °F68.0 °F94 %29.81 in10.0 miNE (50°)16.1 mphMostly Cloudy
7:44 PM69.8 °F68.0 °F94 %29.81 in10.0 miNE (50°)17.3 mphMostly Cloudy
7:45 PM69.8 °F68.0 °F94 %29.81 in10.0 miNE (50°)19.6 mph24.2 mphMostly Cloudy
7:55 PM75.4 °F73.2 °F93 %29.81 in10.0 miNE (40°)19.6 mphOvercast
8:05 PM77.0 °F73.4 °F89 %29.81 in4.0 miENE (60°)17.3 mph27.6 mphRainLight Rain
8:10 PM77.0 °F73.4 °F89 %29.80 in5.0 miENE (60°)20.7 mphRainLight Rain
8:14 PM77.0 °F75.2 °F94 %29.80 in8.0 miENE (60°)18.4 mphRainLight Rain
8:15 PM77.0 °F75.2 °F94 %29.80 in9.0 miENE (60°)18.4 mphOvercast
8:29 PM77.0 °F75.2 °F94 %29.80 in10.0 miNE (50°)20.7 mph25.3 mphOvercast
8:55 PM77.2 °F74.8 °F92 %29.81 in10.0 miNE (40°)23.0 mph0.01 inMostly Cloudy
8:58 PM77.0 °F75.2 °F94 %29.81 in10.0 miNE (40°)23.0 mphMostly Cloudy
9:08 PM77.0 °F73.4 °F89 %29.81 in10.0 miNE (50°)20.7 mphMostly Cloudy
9:12 PM69.8 °F68.0 °F94 %29.81 in10.0 miNE (50°)19.6 mphMostly Cloudy
9:14 PM69.8 °F68.0 °F94 %29.81 in10.0 miNE (50°)20.7 mph26.5 mphMostly Cloudy
9:16 PM69.8 °F68.0 °F94 %29.82 in10.0 miNE (50°)20.7 mph27.6 mphMostly Cloudy
9:22 PM69.8 °F68.0 °F94 %29.82 in10.0 miENE (60°)23.0 mph27.6 mphMostly Cloudy
9:27 PM69.8 °F68.0 °F94 %29.82 in10.0 miENE (60°)19.6 mph26.5 mphMostly Cloudy
9:55 PM69.4 °F67.5 °F93 %29.82 in10.0 miNE (50°)18.4 mphMostly Cloudy
10:01 PM69.8 °F68.0 °F94 %29.81 in10.0 miNE (50°)18.4 mphMostly Cloudy
10:20 PM73.4 °F71.6 °F94 %29.81 in10.0 miNE (50°)23.0 mph28.8 mphMostly Cloudy
10:27 PM69.8 °F68.0 °F94 %29.81 in10.0 miNE (50°)21.9 mph28.8 mphMostly Cloudy
10:42 PM69.8 °F68.0 °F94 %29.81 in10.0 miNE (50°)20.7 mphMostly Cloudy
10:48 PM69.8 °F68.0 °F94 %29.81 in10.0 miNE (50°)21.9 mphMostly Cloudy
10:55 PM69.4 °F67.5 °F93 %29.81 in10.0 miNE (50°)17.3 mphMostly Cloudy
10:58 PM69.8 °F68.0 °F94 %29.81 in10.0 miNE (50°)20.7 mphMostly Cloudy
11:04 PM69.8 °F68.0 °F94 %29.81 in10.0 miNE (50°)19.6 mphMostly Cloudy
11:27 PM69.8 °F68.0 °F94 %29.81 in10.0 miNE (50°)21.9 mphOvercast
11:55 PM70.3 °F67.6 °F91 %29.80 in10.0 miNE (50°)21.9 mph28.8 mphOvercast
Hourly data recorded from PGUA, located miles away from Mangilao, Guam







STORIES FROM OUR PARTNERS